This demonstration page uses our WeatherBlox Daily Observations layout. Learn more.

Left ArrowRight Arrow

Hourly Observations for April 10, 2020

Temp ( °F °C ) Dew Point ( °F °C ) Humidity (%) Winds ( mph kmh ) Pressure ( in mb ) Visibility ( mi km ) Precip ( " mm )
12:51 am 00:51 Clear 50 10 30 -1.1 46 46 NNW 3 6 29.92 1013 10 16.0934 0 0
1:51 am 01:51 Clear 49 9.4 29 -1.7 46 46 VRB 5 7 29.91 1013 10 16.0934 0 0
2:51 am 02:51 Clear 45 7.2 29 -1.7 54 54 SE 3 6 29.91 1013 10 16.0934 0 0
3:51 am 03:51 Clear 42 5.6 28 -2.2 58 58 ENE 6 9 29.92 1013 10 16.0934 0 0
4:51 am 04:51 Clear 40 4.4 28 -2.2 63 63 E 6 9 29.93 1013 10 16.0934 0 0
5:51 am 05:51 Clear 42 5.6 29 -1.7 60 60 SE 5 7 29.93 1014 10 16.0934 0 0
6:51 am 06:51 Sunny 47 8.3 31 -0.6 54 54 ESE 5 7 29.96 1015 10 16.0934 0 0
7:51 am 07:51 Sunny 52 11.1 32 0 47 47 SSE 6 9 29.96 1015 10 16.0934 0 0
8:51 am 08:51 Sunny 62 16.7 31 -0.6 31 31 ESE 9 15 29.94 1014 10 16.0934 0 0
9:51 am 09:51 Sunny 65 18.3 32 0 29 29 ESE 7 11 29.93 1014 10 16.0934 0 0
10:51 am 10:51 Sunny 70 21.1 28 -2.2 21 21 SSE 9 15 29.9 1013 10 16.0934 0 0
11:51 am 11:51 Sunny 72 22.2 20 -6.7 14 14 SSE 8 13 29.87 1011 10 16.0934 0 0
12:51 pm 12:51 Sunny 73 22.8 19 -7.2 13 13 S 12 19 29.84 1011 10 16.0934 0 0
1:51 pm 13:51 Sunny 75 23.9 18 -7.8 11 11 ESE 9 15 29.81 1009 10 16.0934 0 0
2:51 pm 14:51 Sunny 78 25.6 13 -10.6 8 8 SSE 8 13 29.77 1008 10 16.0934 0 0
3:51 pm 15:51 Sunny 77 25 16 -8.9 10 10 SSW 15 24 29.76 1008 10 16.0934 0 0
4:51 pm 16:51 Sunny 77 25 15 -9.4 9 9 VRB 3 6 29.74 1007 10 16.0934 0 0
5:51 pm 17:51 Sunny 76 24.4 14 -10 9 9 WNW 6 9 29.72 1007 10 16.0934 0 0
6:51 pm 18:51 Clear 71 21.7 15 -9.4 12 12 S 7 11 29.72 1007 10 16.0934 0 0
7:51 pm 19:51 Clear 68 20 24 -4.4 19 19 NNW 13 20 29.74 1007 10 16.0934 0 0
8:51 pm 20:51 Clear 65 18.3 24 -4.4 21 21 NW 17 28 29.75 1007 10 16.0934 0 0
9:51 pm 21:51 Clear 62 16.7 24 -4.4 23 23 NW 13 20 29.75 1008 10 16.0934 0 0
10:51 pm 22:51 Clear 60 15.6 24 -4.4 25 25 WNW 9 15 29.76 1008 10 16.0934 0 0
11:51 pm 23:51 Clear 51 10.6 24 -4.4 35 35 NW 3 6 29.78 1009 10 16.0934 0 0

Powered by AerisWeather